Location: Mountain View
(37.3861°N, 122.0839°W)
Time: 04:14:42
(UTC-08:00)

Tiangong 2 - Pass Details

Date: 20 August 2018
Orbit: 382 x 393 km, 42.8° (Epoch: 19 November)

Event Time Altitude Azimuth Distance (km) Brightness Sun altitude
Exits shadow 03:25:24 - 76° (ENE) 1,712 5.0 -31.2°
Enters shadow 04:22:01 -67° 249° (WSW) 12,161 8.6 -23.2°
Maximum altitude 04:58:28 44° 345° (NNW) 542 1.9 -17.2°
